Wind_Speed
31 37 40 42 46 51 56 56 60 65 67 69 74 75 74 75 74 71 73 76 84 91 99 110 116 116 118 122 127 130 128 126 121 117 115 110 106 97 96 93 95 89 82 77
32 35 39 44 49 54 59 64 67 71 71 73 75 78 75 73 73 74 74 72 76 80 85 94 105 115 119 120 119 121 124 129 134 131 124 122 114 105 102 101 72 96 89 76
33 36 39 41 45 53 58 64 69 71 73 76 70 71 67 60 61 62 65 66 69 73 77 82 90 96 106 115 121 123 122 120 122 126 128 125 125 120 114 106 106 99 86 94
36 38 41 42 46 57 59 65 68 71 74 72 66 53 57 53 55 54 54 57 63 67 73 78 83 89 95 100 108 115 120 124 124 123 119 116 117 116 115 117 110 99 99 93
39 41 45 48 54 58 63 68 71 73 74 70 61 51 61 55 51 47 48 50 52 56 62 71 79 86 92 96 99 103 110 118 120 124 120 116 109 110 114 109 112 103 99 102
55 56 56 53 56 60 65 73 73 76 73 74 63 56 58 52 46 45 46 48 54 58 61 65 71 78 85 92 97 100 101 105 110 115 118 117 109 107 109 110 107 113 111 102
55 59 55 56 60 66 71 73 73 73 69 74 61 56 53 48 44 43 42 46 50 55 59 62 65 68 73 78 83 89 93 101 105 106 106 109 107 109 103 107 106 109 109 92
62 65 63 64 64 66 69 74 77 76 71 70 72 64 55 52 48 48 49 51 51 51 52 53 52 55 58 61 71 73 78 81 87 98 101 98 104 106 102 105 103 105 106 108
54 56 59 64 66 65 70 72 77 76 71 64 70 60 47 46 44 51 56 55 53 53 52 54 52 47 47 49 54 63 60 63 68 72 86 93 101 104 104 103 104 104 103 104
59 63 59 63 64 67 71 73 77 79 70 59 59 58 45 42 41 51 55 49 50 50 48 47 42 38 38 41 42 49 53 51 53 62 66 75 88 98 102 103 103 102 100 99
66 70 62 62 65 66 72 73 77 75 73 63 59 55 44 43 44 47 47 49 47 47 43 39 34 33 34 33 34 36 39 42 46 50 53 62 71 88 97 98 100 100 101 95
66 67 67 63 65 66 72 74 73 74 67 60 58 47 41 46 47 56 56 55 52 43 37 34 31 30 26 24 25 26 29 31 36 39 45 53 62 77 89 94 98 98 102 98
62 67 64 63 59 62 68 70 72 71 62 59 58 42 43 52 57 59 56 52 46 38 35 30 25 21 20 20 20 21 23 25 29 33 39 47 59 66 78 88 92 95 98 96
61 66 63 64 55 60 68 68 69 66 57 57 46 26 35 44 47 56 54 43 39 37 33 29 25 24 23 20 18 16 16 16 19 25 32 41 48 56 67 78 85 90 95 97
63 62 60 58 56 61 71 67 72 64 56 54 34 22 30 39 44 50 43 39 36 37 35 34 31 28 25 23 19 13 9 8 11 20 30 37 45 50 61 71 80 85 93 97
65 59 58 56 56 64 67 69 69 61 53 42 21 24 28 33 41 45 39 33 34 37 38 36 33 29 24 19 14 8 4 5 13 23 33 40 44 52 58 69 76 81 87 95
65 56 54 50 55 65 68 64 63 52 52 32 23 20 27 29 34 39 33 30 31 35 38 37 38 33 29 22 20 21 18 16 20 27 32 38 45 51 56 65 74 79 82 90
57 52 52 46 53 61 55 60 56 46 46 31 22 22 22 24 27 30 35 28 30 32 35 35 33 33 32 28 25 22 22 20 16 21 33 38 44 50 57 64 70 76 79 83
52 51 46 47 53 57 54 51 49 44 41 27 26 24 23 25 26 26 31 28 24 26 29 31 30 30 30 28 24 21 18 15 13 15 23 29 34 39 44 49 54 61 67 72
49 47 43 47 52 57 48 49 45 39 40 29 28 24 27 29 26 20 20 28 31 23 22 23 24 25 25 25 25 21 16 12 9 9 14 22 28 33 37 41 45 48 54 60
47 46 46 46 48 51 48 53 45 37 37 31 31 30 32 32 29 28 25 20 22 27 24 20 20 20 21 23 22 21 18 11 7 8 11 16 21 26 31 36 42 46 51 56
45 46 47 45 48 49 48 49 42 35 36 34 34 35 35 38 36 38 33 29 28 19 21 22 16 16 17 17 17 18 17 15 10 4 3 9 13 18 24 30 36 39 44 48
48 49 44 45 47 47 51 40 43 36 34 35 34 34 34 34 36 39 41 38 34 28 20 19 19 18 15 15 16 16 15 14 11 9 6 1 4 8 14 19 24 31 36 41
49 47 42 45 48 46 46 42 43 39 34 35 34 35 36 37 36 35 33 30 29 27 28 24 21 18 16 16 14 12 13 13 11 8 7 2 2 4 6 9 12 17 21 26
49 47 43 45 44 44 35 42 46 44 35 35 35 34 35 36 37 38 37 34 30 27 26 29 27 27 26 23 21 19 15 12 12 11 9 10 12 12 12 14 16 17 17 18
48 43 42 46 42 43 42 39 43 47 39 35 36 35 35 35 36 36 37 37 33 30 31 28 28 27 26 25 25 26 25 25 24 23 21 20 19 19 19 20 20 21 22 23
Wind_Direction
298 288 286 291 295 298 300 302 300 298 295 292 290 291 290 288 282 273 268 264 260 255 253 253 252 251 250 250 247 244 245 245 241 241 242 237 236 237 242 243 246 243 255 255
301 305 298 294 296 296 296 296 297 297 299 296 297 300 294 290 287 282 279 275 269 265 260 255 253 253 253 253 251 249 247 246 244 243 242 243 237 232 236 237 236 234 243 247
302 307 305 302 300 298 300 299 298 300 302 302 306 307 300 296 290 286 280 275 271 266 262 259 256 255 253 251 251 251 251 250 248 246 244 243 244 240 234 237 233 240 237 240
311 303 307 310 308 308 306 306 304 309 311 314 310 312 308 301 296 289 282 275 269 264 261 258 256 254 251 252 253 251 249 249 250 249 247 243 240 241 240 237 236 236 240 243
303 312 314 306 307 308 312 313 309 314 321 318 312 318 318 312 308 302 292 285 277 269 264 259 255 254 251 248 248 249 250 250 248 247 249 247 242 239 237 237 233 230 231 233
309 309 310 312 312 314 315 315 317 321 325 327 323 325 322 318 315 304 295 286 280 276 272 267 264 261 259 256 252 248 247 246 247 249 247 247 244 240 236 235 233 230 232 236
304 311 310 313 317 310 315 318 322 325 327 330 326 329 326 323 320 309 300 294 291 284 280 276 271 268 266 263 261 258 253 249 246 245 246 245 244 240 237 233 231 231 230 229
301 304 304 310 315 314 317 322 324 328 329 334 332 336 329 327 320 319 313 305 299 297 292 288 282 277 269 266 263 260 258 255 250 246 243 242 241 239 234 232 229 227 229 224
307 307 309 310 314 312 320 322 326 324 331 337 332 337 320 316 317 322 326 324 316 310 305 299 294 287 276 273 262 261 259 255 253 248 243 239 235 235 231 229 227 227 226 226
305 312 306 310 313 315 317 323 324 324 329 336 334 336 322 324 332 333 331 324 324 317 312 311 308 297 278 275 268 260 261 257 247 242 238 235 230 229 227 225 225 224 223 226
299 304 308 312 311 316 319 322 324 322 330 333 336 332 325 332 336 335 333 336 332 329 324 317 311 302 294 285 276 268 263 258 249 243 234 229 225 222 222 221 222 220 220 221
299 298 305 310 315 314 318 322 320 322 330 330 335 326 329 336 337 350 348 347 343 338 335 332 329 320 311 298 287 276 266 258 250 238 226 222 217 217 217 218 218 216 217 218
296 297 304 308 315 315 319 322 319 324 329 329 333 326 336 343 345 348 352 350 348 356 0 2 352 339 326 315 302 289 275 263 251 234 220 215 209 209 211 212 215 214 216 216
297 299 306 310 312 313 316 321 319 325 327 328 330 328 342 338 343 348 349 359 7 16 16 13 360 347 339 332 322 305 290 271 248 227 211 204 200 198 205 207 212 213 213 213
296 301 304 313 316 312 317 323 319 326 327 329 321 330 338 338 345 344 355 8 18 21 19 17 7 358 356 351 343 331 307 276 234 207 190 182 180 186 197 203 208 212 212 213
293 300 302 307 315 316 323 327 322 328 334 329 318 335 335 342 344 354 0 12 17 21 22 22 19 15 9 9 3 14 43 134 158 164 166 163 168 182 194 202 208 213 213 213
291 297 305 305 313 317 323 325 324 331 339 331 325 328 335 348 346 352 353 3 15 20 21 23 26 27 25 35 45 57 67 93 121 138 150 160 174 184 196 204 209 214 216 215
288 299 304 308 311 319 327 326 327 336 337 329 321 324 331 338 348 344 352 357 5 15 17 20 28 29 30 40 54 62 65 74 102 141 156 170 182 192 201 207 213 216 218 220
293 300 302 305 311 321 327 332 328 337 336 322 314 314 315 331 335 345 346 350 358 8 16 20 23 34 36 41 46 57 69 87 116 155 178 191 200 207 213 216 220 223 224 227
293 299 304 309 310 317 327 330 328 336 333 322 313 307 309 315 317 325 344 348 350 345 2 13 21 21 32 38 42 47 67 86 110 156 189 199 206 214 220 223 225 227 228 230
292 293 303 308 306 323 335 334 328 335 332 334 324 304 303 304 308 315 324 336 343 345 337 345 353 8 13 18 29 40 35 44 88 138 179 202 216 223 227 228 228 227 228 229
287 293 302 302 310 318 333 333 329 332 333 335 336 326 315 306 303 308 313 317 321 326 329 333 332 334 341 353 2 13 28 32 29 21 184 190 203 216 223 228 230 232 236 238
284 291 300 298 310 319 334 335 326 328 331 333 333 333 329 323 319 316 318 307 313 306 312 312 321 325 328 325 326 331 340 352 7 18 26 340 243 239 235 233 232 233 234 236
280 291 294 298 312 321 332 337 334 325 329 327 329 331 328 326 326 325 324 318 317 312 299 297 296 300 310 313 321 331 329 322 319 328 324 276 200 304 278 270 262 257 255 252
281 284 294 301 313 321 330 336 337 324 323 326 322 325 327 326 325 324 319 318 318 312 307 297 296 287 286 287 286 288 286 281 290 292 283 267 268 282 282 278 277 274 272 266
276 286 294 300 310 314 326 335 336 323 322 324 323 319 322 329 331 326 322 317 310 311 316 310 298 290 284 281 277 272 272 271 271 269 269 267 262 260 266 271 270 267 264 263
Height
10606 10602 10599 10594 10590 10585 10580 10574 10567 10557 10550 10545 10534 10529 10524 10512 10503 10500 10498 10496 10491 10488 10484 10483 10484 10485 10488 10492 10499 10507 10513 10517 10528 10536 10548 10566 10576 10587 10594 10608 10624 10627 10626 10628
10597 10594 10590 10586 10580 10574 10570 10562 10552 10538 10533 10528 10519 10503 10497 10488 10480 10472 10467 10464 10462 10459 10457 10455 10453 10453 10457 10461 10465 10469 10476 10483 10491 10504 10517 10532 10551 10567 10578 10585 10596 10594 10610 10616
10590 10586 10580 10576 10571 10564 10556 10547 10538 10531 10519 10508 10507 10482 10475 10467 10456 10449 10441 10437 10434 10431 10428 10426 10425 10425 10425 10427 10429 10435 10444 10452 10460 10469 10484 10502 10515 10539 10557 10562 10575 10585 10590 10601
10582 10577 10572 10567 10561 10553 10543 10534 10521 10511 10501 10493 10482 10474 10455 10447 10436 10427 10420 10413 10406 10403 10399 10396 10393 10392 10393 10395 10396 10402 10406 10416 10423 10431 10447 10467 10486 10506 10525 10543 10551 10560 10574 10580
10574 10569 10562 10556 10550 10541 10531 10520 10507 10496 10486 10475 10464 10454 10433 10425 10415 10408 10399 10391 10384 10376 10370 10365 10362 10358 10356 10356 10360 10367 10373 10380 10389 10397 10411 10431 10456 10477 10492 10512 10529 10546 10547 10557
10564 10559 10554 10545 10538 10529 10520 10507 10494 10482 10471 10455 10443 10436 10419 10410 10403 10393 10385 10375 10365 10357 10350 10344 10338 10334 10331 10331 10332 10335 10340 10347 10353 10364 10378 10399 10420 10445 10465 10481 10505 10519 10531 10540
10555 10550 10544 10536 10527 10516 10506 10494 10483 10476 10464 10442 10433 10425 10410 10399 10389 10380 10372 10359 10347 10338 10330 10323 10318 10314 10310 10307 10305 10307 10313 10319 10325 10335 10347 10367 10387 10410 10438 10454 10475 10491 10510 10529
10547 10541 10535 10526 10518 10507 10496 10483 10466 10457 10449 10434 10413 10407 10392 10385 10378 10366 10356 10344 10333 10322 10312 10303 10296 10291 10285 10282 10280 10281 10283 10287 10296 10308 10321 10340 10359 10381 10409 10427 10448 10468 10485 10505
10539 10531 10525 10517 10509 10498 10487 10475 10461 10448 10440 10430 10410 10403 10392 10382 10372 10355 10342 10329 10317 10305 10295 10286 10277 10271 10265 10260 10257 10257 10260 10264 10271 10282 10294 10314 10335 10356 10380 10400 10422 10442 10464 10480
10530 10524 10516 10508 10499 10487 10476 10465 10451 10438 10429 10425 10406 10395 10384 10377 10365 10350 10336 10323 10308 10293 10281 10270 10262 10255 10249 10245 10242 10241 10241 10244 10250 10256 10268 10285 10307 10331 10352 10374 10397 10421 10444 10463
10520 10515 10508 10500 10491 10480 10467 10456 10442 10429 10418 10409 10402 10388 10377 10368 10359 10347 10329 10314 10299 10286 10275 10262 10253 10245 10239 10234 10230 10229 10229 10230 10234 10241 10251 10265 10283 10303 10326 10350 10377 10402 10422 10444
10509 10507 10500 10493 10483 10470 10459 10449 10433 10422 10415 10403 10393 10381 10372 10362 10351 10336 10321 10308 10294 10281 10268 10257 10247 10240 10233 10227 10224 10221 10219 10220 10223 10229 10237 10249 10265 10284 10310 10334 10358 10384 10403 10424
10501 10496 10492 10485 10478 10465 10452 10441 10425 10417 10406 10393 10388 10374 10364 10352 10342 10332 10320 10309 10295 10279 10267 10256 10247 10239 10231 10226 10221 10218 10215 10214 10217 10221 10229 10240 10254 10275 10299 10326 10348 10370 10389 10412
10493 10486 10482 10475 10470 10458 10446 10434 10422 10412 10402 10390 10383 10375 10367 10359 10348 10334 10324 10310 10294 10281 10271 10259 10249 10241 10234 10227 10222 10217 10214 10213 10214 10218 10226 10237 10253 10273 10299 10321 10342 10362 10381 10398
10484 10481 10475 10464 10459 10447 10437 10424 10410 10408 10393 10382 10374 10372 10366 10357 10347 10339 10326 10311 10297 10286 10275 10264 10254 10245 10237 10230 10224 10219 10215 10213 10215 10220 10228 10238 10254 10275 10298 10317 10335 10353 10371 10385
10475 10476 10470 10456 10451 10440 10430 10414 10404 10398 10387 10376 10372 10367 10363 10355 10346 10335 10325 10315 10303 10291 10280 10270 10261 10252 10243 10235 10229 10224 10220 10219 10220 10225 10233 10244 10259 10279 10298 10313 10330 10343 10359 10374
10465 10466 10462 10453 10445 10434 10426 10411 10402 10393 10381 10373 10370 10366 10360 10353 10345 10336 10328 10319 10308 10297 10287 10278 10269 10260 10253 10244 10238 10233 10230 10229 10231 10236 10243 10255 10268 10282 10297 10310 10321 10333 10346 10358
10458 10456 10452 10448 10439 10428 10420 10406 10400 10390 10380 10373 10368 10363 10359 10353 10347 10339 10330 10321 10312 10301 10294 10287 10278 10269 10263 10256 10250 10246 10245 10245 10249 10253 10258 10266 10276 10286 10294 10303 10313 10323 10336 10347
10448 10446 10444 10439 10433 10425 10412 10402 10396 10386 10379 10372 10367 10362 10356 10351 10347 10340 10332 10324 10316 10309 10301 10293 10287 10279 10273 10267 10262 10259 10258 10258 10261 10265 10271 10277 10284 10291 10299 10307 10316 10323 10333 10341
10437 10436 10434 10432 10425 10419 10410 10399 10392 10383 10375 10368 10364 10359 10353 10348 10344 10338 10331 10325 10318 10311 10305 10300 10294 10288 10282 10276 10272 10270 10268 10267 10269 10271 10275 10279 10284 10289 10295 10302 10309 10317 10324 10331
10428 10427 10425 10423 10417 10412 10402 10392 10387 10380 10374 10365 10359 10356 10350 10345 10340 10335 10330 10324 10318 10314 10308 10302 10298 10293 10289 10285 10281 10278 10276 10274 10274 10274 10277 10280 10283 10287 10291 10295 10299 10304 10309 10314
10419 10419 10417 10414 10410 10404 10397 10387 10381 10376 10369 10362 10355 10350 10345 10341 10336 10331 10327 10323 10319 10313 10309 10304 10299 10295 10291 10289 10286 10284 10281 10280 10279 10278 10278 10279 10280 10282 10285 10288 10291 10296 10299 10303
10410 10411 10411 10405 10403 10398 10392 10383 10377 10372 10365 10358 10352 10346 10340 10335 10331 10326 10321 10316 10314 10311 10307 10303 10299 10295 10292 10289 10287 10285 10284 10282 10281 10280 10280 10280 10280 10280 10280 10281 10283 10285 10287 10290
10401 10402 10401 10398 10394 10390 10386 10378 10371 10367 10360 10355 10348 10342 10337 10331 10326 10320 10315 10310 10306 10304 10301 10299 10296 10294 10291 10289 10287 10284 10282 10281 10281 10280 10279 10278 10278 10279 10279 10279 10280 10281 10282 10283
10393 10391 10393 10391 10388 10384 10380 10374 10366 10362 10356 10351 10345 10339 10333 10326 10320 10315 10310 10304 10300 10296 10294 10291 10289 10287 10286 10285 10283 10282 10280 10279 10278 10277 10276 10276 10276 10275 10275 10275 10276 10276 10277 10277
10379 10382 10384 10382 10381 10377 10374 10369 10363 10356 10351 10346 10340 10335 10329 10323 10316 10310 10304 10299 10295 10291 10287 10283 10280 10279 10277 10276 10275 10274 10274 10273 10272 10272 10271 10271 10271 10270 10270 10270 10270 10270 10270 10270